Volver al catálogo

STARLINK-1226

ActivoComunicacionesVLEO
NORAD 45229·PAYLOAD·🇺🇸 United States

Lanzado Feb 17, 2020 desde Cape Canaveral Space Force Station

Loading…

Próximos Pases (próximas 24 horas)

TLE

ActualizadoSource: CelesTrak SupGP

Época: Sep 14, 2026, 20:36 UTC

1 45229C 20012BD  26257.85881944  .00047902  00000+0  69789-3 0  2576
2 45229  53.1491 180.8899 0002818 113.7390 235.8535 15.55071045    18

Sigue STARLINK-1226 en tiempo real con AllMySat

Download on the App Store